Preview of NWS' New Version of Forecast
This preview is not operational and should not be used for support decisions.

Regional Weather Roundup (RWR)

Issued by National Weather Service (NWS)

                            
000
ASUS45 KCYS 211610
RWRWY 

WYOMING REGIONAL WEATHER ROUNDUP
NATIONAL WEATHER SERVICE CHEYENNE WY
900 AM MST THU FEB 21 2019

NOTE:  "FAIR" INDICATES FEW OR NO CLOUDS BELOW 12,000 FEET
WITH NO SIGNIFICANT WEATHER AND/OR OBSTRUCTIONS TO VISIBILITY.

WYZ001-211700-
...YELLOWSTONE NATIONAL PARK...
  
CITY           SKY/WX    TMP DP  RH WIND       PRES   REMARKS
LK YELLOWSTONE   N/A      2  -3  80 CALM      29.69S                  
W YELLOWSTONE  NOT AVBL                                               

$$
WYZ002>013-054>058-071-098>099-211700-
...NORTHERN WYOMING...
  
CITY           SKY/WX    TMP DP  RH WIND       PRES   REMARKS
JACKSON        SUNNY     -2  -7  79 NE6       29.75R WCI -14          
CODY           LGT SNOW  17  12  80 N6        29.91R WCI   9          
GREYBULL       PTSUNNY   13   9  84 CALM      29.95R                  
WORLAND        LGT SNOW  16  13  88 CALM      29.93R FOG              
SHERIDAN       CLOUDY    17  12  80 W5        29.98R WCI  10          
BUFFALO        LGT SNOW  13   9  84 N3        29.91R FOG              
GILLETTE       MOSUNNY   11   8  88 CALM      29.94S                  
HULETT         FLURRIES  12   5  73 MISG      29.97R                  
NEWCASTLE        N/A      7  -2  66 CALM      29.97R                  

$$
WYZ014>020-022>026-101>103-211700-
...CENTRAL WYOMING...
  
CITY           SKY/WX    TMP DP  RH WIND       PRES   REMARKS
BIG PINEY      CLOUDY    -6 -11  79 N3        29.70R                  
PINEDALE       PTSUNNY   -8 -13  77 NW12      29.69S WCI -27          
DUBOIS         LGT SNOW  -2  -8  78 NW5       29.72R WCI -12          
LANDER         LGT SNOW  13   8  81 NW5       29.83R VSB 3/4 WCI   5  
RIVERTON       LGT SNOW  14   8  77 N6        29.83S VSB 1   WCI   5  
CASPER         LGT SNOW  11   6  81 NE6       29.84R WCI   1          
DOUGLAS        CLOUDY    15  10  80 S3        29.87R                  

$$
WYZ021-027>030-104>119-211700-
...SOUTHERN WYOMING...
  
CITY           SKY/WX    TMP DP  RH WIND       PRES   REMARKS
EVANSTON       CLOUDY     4  -1  80 E14       29.61R HAZE    WCI -14  
KEMMERER       NOT AVBL                                               
FORT BRIDGER   LGT SNOW   4   1  90 NE3       29.68R                  
ROCK SPRINGS   CLOUDY     8   3  80 E21       29.68R HAZE    WCI -12  
DIXON          FAIR      14   4  65 E6        29.68S WCI   5          
RAWLINS        CLOUDY    13   4  67 NE10      29.69R WCI   0          
SARATOGA       FAIR      12   3  67 CALM      29.68R                  
LARAMIE        CLOUDY    13   5  70 SE13      29.68R WCI  -2          
CHEYENNE       LGT SNOW  15   8  73 N5        29.77R WCI   8          
TORRINGTON     CLOUDY    18   9  68 E5        29.91R WCI  11          
PINE BLUFFS    CLOUDY    21   9  58 E8        29.82S WCI  12          

$$
  

000
ASUS45 KCYS 211610
RWRWY 

WYOMING REGIONAL WEATHER ROUNDUP
NATIONAL WEATHER SERVICE CHEYENNE WY
900 AM MST THU FEB 21 2019

NOTE:  "FAIR" INDICATES FEW OR NO CLOUDS BELOW 12,000 FEET
WITH NO SIGNIFICANT WEATHER AND/OR OBSTRUCTIONS TO VISIBILITY.

WYZ001-211700-
YELLOWSTONE NATIONAL PARK
  
CITY           SKY/WX    TMP DP  RH WIND       PRES   REMARKS
LK YELLOWSTONE   N/A      2  -3  80 CALM      29.69S                  
W YELLOWSTONE  NOT AVBL                                               

$$
WYZ002>013-054>058-071-098>099-211700-
NORTHERN WYOMING
  
CITY           SKY/WX    TMP DP  RH WIND       PRES   REMARKS
JACKSON        FAIR      -2  -7  79 NE6       29.75R WCI -14          
CODY           LGT SNOW  17  12  80 N6        29.91R WCI   9          
GREYBULL       PTSUNNY   13   9  84 CALM      29.95R                  
WORLAND        LGT SNOW  16  13  88 CALM      29.93R FOG              
SHERIDAN       CLOUDY    17  12  80 W5        29.98R WCI  10          
BUFFALO        LGT SNOW  13   9  84 N3        29.91R FOG              
GILLETTE       FAIR      11   8  88 CALM      29.94S                  
HULETT         FLURRIES  12   5  73 MISG      29.97                   
NEWCASTLE        N/A      7  -2  66 CALM      29.97                   

$$
WYZ014>020-022>026-101>103-211700-
CENTRAL WYOMING
  
CITY           SKY/WX    TMP DP  RH WIND       PRES   REMARKS
BIG PINEY      CLOUDY    -6 -11  79 N3        29.70R                  
PINEDALE       PTSUNNY   -8 -13  77 NW12      29.69  WCI -27          
DUBOIS         LGT SNOW  -2  -8  78 NW5       29.72  WCI -12          
LANDER         LGT SNOW  13   8  81 NW5       29.83R VSB 3/4 WCI   5  
RIVERTON       LGT SNOW  14   8  77 N6        29.83S VSB 1   WCI   5  
CASPER         LGT SNOW  11   6  81 NE6       29.84R WCI   1          
DOUGLAS        CLOUDY    15  10  80 S3        29.87R                  

$$
WYZ021-027>030-104>119-211700-
SOUTHERN WYOMING
  
CITY           SKY/WX    TMP DP  RH WIND       PRES   REMARKS
EVANSTON       CLOUDY     4  -1  80 E14       29.61R HAZE    WCI -14  
ROCK SPRINGS   CLOUDY     8   3  80 E21       29.68R HAZE    WCI -12  
DIXON          FAIR      14   4  65 E6        29.68S WCI   5          
RAWLINS        CLOUDY    13   4  67 NE10      29.69R WCI   0          
SARATOGA       FAIR      12   3  67 CALM      29.68R                  
LARAMIE        CLOUDY    13   5  70 SE13      29.68R WCI  -2          
CHEYENNE       LGT SNOW  15   8  73 N5        29.77R WCI   8          
TORRINGTON     CLOUDY    18   9  68 E5        29.91R WCI  11          
PINE BLUFFS    CLOUDY    21   9  58 E8        29.82S WCI  12          

$$